Time,TemperatureF,DewpointF,PressureIn,WindDirection,WindDirectionDegrees,WindSpeedMPH,WindSpeedGustMPH,Humidity,HourlyPrecipIn,Conditions,Clouds,dailyrainin,SoftwareType,DateUTC
2013-11-22 00:02:00,12.0,-99.9,-100.00,North,-999,-999.0,-999.0,-999,-99.99,,,0.10,,2013-11-22 07:02:00,
2013-11-22 00:12:00,12.0,-99.9,-100.00,North,-999,-999.0,-999.0,-999,-99.99,,,0.10,,2013-11-22 07:12:00,
2013-11-22 00:52:00,12.0,-99.9,-100.00,North,-999,-999.0,-999.0,-999,0.00,,,0.10,,2013-11-22 07:52:00,
2013-11-22 01:01:00,12.0,-99.9,-100.00,North,-999,-999.0,-999.0,-999,0.00,,,0.10,,2013-11-22 08:01:00,
2013-11-22 01:12:00,12.0,-99.9,-100.00,North,-999,-999.0,-999.0,-999,0.00,,,0.10,,2013-11-22 08:12:00,
2013-11-22 01:52:00,11.0,-99.9,-100.00,North,-999,-999.0,-999.0,-999,-99.99,,,0.10,,2013-11-22 08:52:00,
2013-11-22 02:02:00,11.0,-99.9,-100.00,North,-999,-999.0,-999.0,-999,-99.99,,,0.10,,2013-11-22 09:02:00,
2013-11-22 02:12:00,11.0,-99.9,-100.00,North,-999,-999.0,-999.0,-999,-99.99,,,0.10,,2013-11-22 09:12:00,
2013-11-22 02:54:00,13.0,-99.9,-100.00,North,-999,-999.0,-999.0,-999,0.00,,,0.10,,2013-11-22 09:54:00,
2013-11-22 03:03:00,13.0,-99.9,-100.00,North,-999,-999.0,-999.0,-999,0.00,,,0.10,,2013-11-22 10:03:00,
2013-11-22 03:13:00,13.0,-99.9,-100.00,North,-999,-999.0,-999.0,-999,0.00,,,0.10,,2013-11-22 10:13:00,
2013-11-22 03:53:00,14.0,-99.9,-100.00,North,-999,-999.0,-999.0,-999,-99.99,,,0.10,,2013-11-22 10:53:00,
2013-11-22 04:02:00,14.0,-99.9,-100.00,North,-999,-999.0,-999.0,-999,-99.99,,,0.10,,2013-11-22 11:02:00,
2013-11-22 04:12:00,14.0,-99.9,-100.00,North,-999,-999.0,-999.0,-999,-99.99,,,0.10,,2013-11-22 11:12:00,
2013-11-22 04:53:00,14.0,-99.9,-100.00,North,-999,-999.0,-999.0,-999,0.00,,,0.10,,2013-11-22 11:53:00,
2013-11-22 05:02:00,14.0,-99.9,-100.00,North,-999,-999.0,-999.0,-999,0.00,,,0.10,,2013-11-22 12:02:00,
2013-11-22 05:12:00,14.0,-99.9,-100.00,North,-999,-999.0,-999.0,-999,0.00,,,0.10,,2013-11-22 12:12:00,
2013-11-22 05:52:00,19.0,-99.9,-100.00,North,-999,-999.0,-999.0,-999,0.00,,,0.10,,2013-11-22 12:52:00,
2013-11-22 06:02:00,19.0,-99.9,-100.00,North,-999,-999.0,-999.0,-999,0.00,,,0.10,,2013-11-22 13:02:00,
2013-11-22 06:12:00,19.0,-99.9,-100.00,North,-999,-999.0,-999.0,-999,0.00,,,0.10,,2013-11-22 13:12:00,
2013-11-22 06:52:00,9.0,-99.9,-100.00,North,-999,-999.0,-999.0,-999,0.00,,,0.10,,2013-11-22 13:52:00,
2013-11-22 07:02:00,9.0,-99.9,-100.00,North,-999,-999.0,-999.0,-999,0.00,,,0.10,,2013-11-22 14:02:00,
2013-11-22 07:12:00,9.0,-99.9,-100.00,North,-999,-999.0,-999.0,-999,0.00,,,0.10,,2013-11-22 14:12:00,
2013-11-22 07:52:00,9.0,-99.9,-100.00,North,-999,-999.0,-999.0,-999,0.00,,,0.10,,2013-11-22 14:52:00,
2013-11-22 08:02:00,9.0,-99.9,-100.00,North,-999,-999.0,-999.0,-999,0.00,,,0.10,,2013-11-22 15:02:00,
2013-11-22 08:12:00,9.0,-99.9,-100.00,North,-999,-999.0,-999.0,-999,0.00,,,0.10,,2013-11-22 15:12:00,
2013-11-22 08:54:00,9.0,-99.9,-100.00,North,-999,-999.0,-999.0,-999,0.00,,,0.10,,2013-11-22 15:54:00,
2013-11-22 09:03:00,9.0,-99.9,-100.00,North,-999,-999.0,-999.0,-999,0.00,,,0.10,,2013-11-22 16:03:00,
2013-11-22 09:13:00,9.0,-99.9,-100.00,North,-999,-999.0,-999.0,-999,0.00,,,0.10,,2013-11-22 16:13:00,
2013-11-22 09:53:00,23.0,-99.9,-100.00,North,-999,-999.0,-999.0,-999,0.00,,,-99.99,,2013-11-22 16:53:00,
2013-11-22 10:03:00,23.0,-99.9,-100.00,North,-999,-999.0,-999.0,-999,0.00,,,-99.99,,2013-11-22 17:03:00,
2013-11-22 10:12:00,23.0,-99.9,-100.00,North,-999,-999.0,-999.0,-999,0.00,,,-99.99,,2013-11-22 17:12:00,
2013-11-22 10:53:00,27.0,-99.9,-100.00,North,-999,-999.0,-999.0,-999,0.00,,,0.09,,2013-11-22 17:53:00,
2013-11-22 11:02:00,27.0,-99.9,-100.00,North,-999,-999.0,-999.0,-999,0.00,,,0.09,,2013-11-22 18:02:00,
2013-11-22 11:12:00,27.0,-99.9,-100.00,North,-999,-999.0,-999.0,-999,0.00,,,0.09,,2013-11-22 18:12:00,
2013-11-22 11:52:00,33.0,-99.9,-100.00,North,-999,-999.0,-999.0,-999,0.00,,,0.08,,2013-11-22 18:52:00,
2013-11-22 12:01:00,33.0,-99.9,-100.00,North,-999,-999.0,-999.0,-999,0.00,,,0.08,,2013-11-22 19:01:00,
2013-11-22 12:11:00,33.0,-99.9,-100.00,North,-999,-999.0,-999.0,-999,0.00,,,0.08,,2013-11-22 19:11:00,
2013-11-22 12:53:00,30.0,-99.9,-100.00,North,-999,-999.0,-999.0,-999,0.01,,,0.08,,2013-11-22 19:53:00,
2013-11-22 13:02:00,30.0,-99.9,-100.00,North,-999,-999.0,-999.0,-999,0.01,,,0.08,,2013-11-22 20:02:00,
2013-11-22 13:12:00,30.0,-99.9,-100.00,North,-999,-999.0,-999.0,-999,0.01,,,0.08,,2013-11-22 20:12:00,
2013-11-22 13:52:00,29.0,-99.9,-100.00,North,-999,-999.0,-999.0,-999,0.00,,,0.03,,2013-11-22 20:52:00,
2013-11-22 14:02:00,29.0,-99.9,-100.00,North,-999,-999.0,-999.0,-999,0.00,,,0.03,,2013-11-22 21:02:00,
2013-11-22 14:11:00,29.0,-99.9,-100.00,North,-999,-999.0,-999.0,-999,0.00,,,0.03,,2013-11-22 21:11:00,
2013-11-22 15:53:00,30.0,-99.9,-100.00,North,-999,-999.0,-999.0,-999,0.00,,,0.01,,2013-11-22 22:53:00,
2013-11-22 16:02:00,30.0,-99.9,-100.00,North,-999,-999.0,-999.0,-999,0.00,,,0.01,,2013-11-22 23:02:00,
2013-11-22 16:12:00,30.0,-99.9,-100.00,North,-999,-999.0,-999.0,-999,0.00,,,0.01,,2013-11-22 23:12:00,
2013-11-22 16:53:00,21.0,-99.9,-100.00,North,-999,-999.0,-999.0,-999,0.00,,,0.01,,2013-11-22 23:53:00,
2013-11-22 17:02:00,21.0,-99.9,-100.00,North,-999,-999.0,-999.0,-999,0.00,,,0.01,,2013-11-23 00:02:00,
2013-11-22 17:12:00,21.0,-99.9,-100.00,North,-999,-999.0,-999.0,-999,0.00,,,0.01,,2013-11-23 00:12:00,
2013-11-22 17:52:00,15.0,-99.9,-100.00,North,-999,-999.0,-999.0,-999,0.00,,,0.01,,2013-11-23 00:52:00,
2013-11-22 18:02:00,15.0,-99.9,-100.00,North,-999,-999.0,-999.0,-999,0.00,,,0.01,,2013-11-23 01:02:00,
2013-11-22 18:11:00,15.0,-99.9,-100.00,North,-999,-999.0,-999.0,-999,0.00,,,0.01,,2013-11-23 01:11:00,
2013-11-22 18:53:00,9.0,-99.9,-100.00,North,-999,-999.0,-999.0,-999,0.00,,,0.01,,2013-11-23 01:53:00,
2013-11-22 19:02:00,9.0,-99.9,-100.00,North,-999,-999.0,-999.0,-999,0.00,,,0.01,,2013-11-23 02:02:00,
2013-11-22 19:11:00,9.0,-99.9,-100.00,North,-999,-999.0,-999.0,-999,0.00,,,0.01,,2013-11-23 02:11:00,
2013-11-22 21:53:00,9.0,-99.9,-100.00,North,-999,-999.0,-999.0,-999,0.00,,,0.01,,2013-11-23 04:53:00,
2013-11-22 22:03:00,9.0,-99.9,-100.00,North,-999,-999.0,-999.0,-999,0.00,,,0.01,,2013-11-23 05:03:00,
2013-11-22 22:12:00,9.0,-99.9,-100.00,North,-999,-999.0,-999.0,-999,0.00,,,0.01,,2013-11-23 05:12:00,
2013-11-22 22:53:00,10.0,-99.9,-100.00,North,-999,-999.0,-999.0,-999,0.00,,,0.01,,2013-11-23 05:53:00,
2013-11-22 23:02:00,10.0,-99.9,-100.00,North,-999,-999.0,-999.0,-999,0.00,,,0.01,,2013-11-23 06:02:00,
2013-11-22 23:12:00,10.0,-99.9,-100.00,North,-999,-999.0,-999.0,-999,0.00,,,0.01,,2013-11-23 06:12:00,
2013-11-22 23:53:00,11.0,-99.9,-100.00,North,-999,-999.0,-999.0,-999,0.00,,,0.01,,2013-11-23 06:53:00,